TimeCEST,TemperatureF,Dew PointF,Humidity,Sea Level PressureIn,VisibilityMPH,Wind Direction,Wind SpeedMPH,Gust SpeedMPH,PrecipitationIn,Events,Conditions,WindDirDegrees,DateUTC
12:00 AM,37.4,35.6,93,30.01,-9999.0,SW,5.8,-,N/A,,Clear,230,2012-10-08 22:00:00
12:30 AM,39.2,37.4,93,30.01,-9999.0,SW,5.8,-,N/A,,Clear,220,2012-10-08 22:30:00
1:00 AM,35.6,33.8,93,30.01,5.6,WSW,4.6,-,N/A,,Unknown,240,2012-10-08 23:00:00
1:30 AM,37.4,35.6,93,29.98,-9999.0,SW,5.8,-,N/A,,Clear,220,2012-10-08 23:30:00
2:00 AM,38,36,89,30.02,9,SW,6.7,,,,,220,2012-10-09 00:00:00
2:00 AM,37.4,35.6,93,29.98,-9999.0,SW,6.9,-,N/A,,Clear,220,2012-10-09 00:00:00
2:30 AM,37.4,35.6,93,29.98,-9999.0,SW,5.8,-,N/A,,Clear,220,2012-10-09 00:30:00
3:00 AM,37.4,35.6,93,29.95,-9999.0,SW,5.8,-,N/A,,Clear,220,2012-10-09 01:00:00
3:30 AM,35.6,35.6,100,29.95,-9999.0,SW,6.9,-,N/A,,Clear,220,2012-10-09 01:30:00
4:00 AM,37.4,35.6,93,29.92,-9999.0,SW,6.9,-,N/A,,Clear,220,2012-10-09 02:00:00
4:30 AM,35.6,33.8,93,29.92,-9999.0,SSW,4.6,-,N/A,,Clear,210,2012-10-09 02:30:00
5:00 AM,35.6,33.8,93,29.89,-9999.0,SW,5.8,-,N/A,,Clear,230,2012-10-09 03:00:00
5:30 AM,35.6,33.8,93,29.89,-9999.0,West,3.5,-,N/A,,Clear,260,2012-10-09 03:30:00
6:00 AM,35.6,33.8,93,29.86,-9999.0,SW,4.6,-,N/A,,Clear,230,2012-10-09 04:00:00
6:30 AM,33.8,32.0,93,29.86,-9999.0,SSW,3.5,-,N/A,,Clear,210,2012-10-09 04:30:00
7:00 AM,33.8,32.0,93,29.83,-9999.0,SW,2.3,-,N/A,,Clear,230,2012-10-09 05:00:00
7:30 AM,35.6,33.8,93,29.83,-9999.0,Variable,1.2,-,N/A,,Clear,0,2012-10-09 05:30:00
8:00 AM,38,34,78,29.86,25,WSW,6.7,,,,Scattered Clouds,240,2012-10-09 06:00:00
8:00 AM,37.4,33.8,87,29.83,-9999.0,WSW,5.8,-,N/A,,Clear,250,2012-10-09 06:00:00
8:30 AM,41.0,37.4,87,29.83,-9999.0,WNW,5.8,-,N/A,,Clear,300,2012-10-09 06:30:00
9:00 AM,44.6,37.4,76,29.83,-9999.0,WSW,12.7,-,N/A,,Clear,240,2012-10-09 07:00:00
9:30 AM,48.2,41.0,76,29.83,-9999.0,SW,12.7,-,N/A,,Clear,230,2012-10-09 07:30:00
10:00 AM,50.0,41.0,71,29.80,-9999.0,SW,13.8,-,N/A,,Clear,230,2012-10-09 08:00:00
10:30 AM,51.8,41.0,67,29.80,6.2,SW,15.0,-,N/A,,Partly Cloudy,230,2012-10-09 08:30:00
11:00 AM,51.8,42.8,71,29.80,6.2,WSW,16.1,-,N/A,,Partly Cloudy,240,2012-10-09 09:00:00
11:30 AM,51.8,42.8,71,29.80,6.2,WSW,15.0,-,N/A,,Partly Cloudy,240,2012-10-09 09:30:00
12:00 PM,51.8,42.8,71,29.80,6.2,WSW,13.8,-,N/A,,Partly Cloudy,240,2012-10-09 10:00:00
12:30 PM,55.4,44.6,67,29.77,6.2,SW,16.1,-,N/A,,Partly Cloudy,230,2012-10-09 10:30:00
1:00 PM,53.6,44.6,72,29.77,6.2,WSW,19.6,-,N/A,,Partly Cloudy,240,2012-10-09 11:00:00
1:30 PM,55.4,44.6,67,29.77,6.2,WSW,25.3,-,N/A,,Partly Cloudy,240,2012-10-09 11:30:00
2:00 PM,56,42,49,29.78,25,SW,24.6,,,,Scattered Clouds,230,2012-10-09 12:00:00
2:00 PM,55.4,42.8,63,29.77,6.2,WSW,24.2,-,N/A,,Partly Cloudy,240,2012-10-09 12:00:00
2:30 PM,55.4,41.0,58,29.77,6.2,SW,21.9,-,N/A,,Partly Cloudy,230,2012-10-09 12:30:00
3:00 PM,55.4,42.8,63,29.77,-9999.0,WSW,17.3,-,N/A,,Clear,240,2012-10-09 13:00:00
3:30 PM,55.4,42.8,63,29.77,-9999.0,SW,18.4,-,N/A,,Clear,230,2012-10-09 13:30:00
4:00 PM,55.4,44.6,67,29.77,6.2,SW,17.3,-,N/A,,Partly Cloudy,230,2012-10-09 14:00:00
4:30 PM,55.4,44.6,67,29.77,6.2,SW,15.0,-,N/A,,Scattered Clouds,230,2012-10-09 14:30:00
5:00 PM,53.6,44.6,72,29.80,6.2,SW,15.0,-,N/A,,Partly Cloudy,230,2012-10-09 15:00:00
5:30 PM,53.6,44.6,72,29.80,6.2,WSW,12.7,-,N/A,,Mostly Cloudy,240,2012-10-09 15:30:00
6:00 PM,51.8,44.6,76,29.80,6.2,SW,9.2,-,N/A,,Mostly Cloudy,230,2012-10-09 16:00:00
6:30 PM,50.0,44.6,82,29.83,6.2,SW,8.1,-,N/A,,Mostly Cloudy,230,2012-10-09 16:30:00
7:00 PM,48.2,44.6,87,29.83,6.2,SW,5.8,-,N/A,,Partly Cloudy,230,2012-10-09 17:00:00
7:30 PM,48.2,44.6,87,29.83,-9999.0,SSW,9.2,-,N/A,,Clear,210,2012-10-09 17:30:00
8:00 PM,46,42,83,29.87,12,SW,6.7,,,,Clear,220,2012-10-09 18:00:00
8:00 PM,46.4,42.8,87,29.83,-9999.0,SW,5.8,-,N/A,,Clear,230,2012-10-09 18:00:00
8:30 PM,48.2,44.6,87,29.86,-9999.0,Variable,1.2,-,N/A,,Clear,0,2012-10-09 18:30:00
9:00 PM,48.2,41.0,76,29.86,-9999.0,Variable,1.2,-,N/A,,Clear,0,2012-10-09 19:00:00
9:30 PM,46.4,41.0,81,29.89,6.2,North,3.5,-,N/A,,Scattered Clouds,10,2012-10-09 19:30:00
10:00 PM,46.4,39.2,76,29.89,-9999.0,Variable,1.2,-,N/A,,Clear,0,2012-10-09 20:00:00
10:30 PM,46.4,39.2,76,29.89,-9999.0,Variable,2.3,-,N/A,,Clear,0,2012-10-09 20:30:00
11:00 PM,42.8,37.4,81,29.89,-9999.0,Variable,3.5,-,N/A,,Clear,0,2012-10-09 21:00:00
11:30 PM,44.6,37.4,76,29.89,-9999.0,WSW,3.5,-,N/A,,Clear,250,2012-10-09 21:30:00